| time (UTC) | temp F | wind direction | speed knots | gust knots | rain 1hr in | rain 24hr in | rain mn in | humidity % | barometer mb |
| 20260504233001 | 74 | 193 | 1.7 | 7.8 | 0.00 | 0.00 | 0.00 | 52 | 985.7 |
| 20260504230007 | 75 | 183 | 3.5 | 11.3 | 0.00 | 0.00 | 0.00 | 49 | 985.7 |
| 20260504223001 | 77 | 188 | 2.6 | 13.9 | 0.00 | 0.00 | 0.00 | 47 | 985.8 |
| 20260504220004 | 78 | 168 | 2.6 | 10.4 | 0.00 | 0.00 | 0.00 | 48 | 986.0 |
| 20260504213008 | 78 | 126 | 5.2 | 12.2 | 0.00 | 0.00 | 0.00 | 48 | 986.2 |
| 20260504210003 | 79 | 196 | 2.6 | 13.0 | 0.00 | 0.00 | 0.00 | 47 | 986.5 |
| 20260504200009 | 80 | 265 | 7.0 | 14.8 | 0.00 | 0.00 | 0.00 | 45 | 987.0 |
| 20260504190009 | 79 | 226 | 1.7 | 10.4 | 0.00 | 0.00 | 0.00 | 52 | 987.7 |
| 20260504173002 | 79 | 233 | 0.9 | 9.6 | 0.00 | 0.00 | 0.00 | 56 | 988.6 |
| 20260504050006 | 56 | 218 | 1.7 | 3.5 | 0.00 | 0.00 | 0.00 | 69 | 990.9 |
| 20260504043008 | 56 | 223 | 0.9 | 3.5 | 0.00 | 0.00 | 0.00 | 70 | 991.2 |
| 20260504040007 | 56 | 228 | 0.0 | 0.9 | 0.00 | 0.00 | 0.00 | 70 | 991.2 |
| 20260504033002 | 56 | 225 | 0.0 | 0.0 | 0.00 | 0.00 | 0.00 | 71 | 991.3 |
| 20260504030007 | 57 | 237 | 0.0 | 0.0 | 0.00 | 0.00 | 0.00 | 68 | 991.4 |
| 20260504023005 | 58 | 243 | 0.0 | 3.5 | 0.00 | 0.00 | 0.00 | 66 | 991.4 |
| 20260504020007 | 59 | 231 | 0.0 | 0.0 | 0.00 | 0.00 | 0.00 | 64 | 991.4 |
| 20260504013004 | 60 | 224 | 0.0 | 3.5 | 0.00 | 0.00 | 0.00 | 65 | 991.2 |
| 20260504010008 | 61 | 227 | 0.0 | 1.7 | 0.00 | 0.00 | 0.00 | 63 | 990.8 |
| 20260504003002 | 63 | 224 | 0.0 | 1.7 | 0.00 | 0.00 | 0.00 | 60 | 990.8 |
| 20260504000007 | 65 | 199 | 0.0 | 3.5 | 0.00 | 0.00 | 0.00 | 54 | 990.9 |